Flag for Greenland Weather past 2 weeks in Ittoqqortoormiit, Greenland

Now
6 °F

Clear.


Feels Like: -3 °F
Forecast: -12 / 10 °F
Wind: 5 mph from Northeast

Location: Scoresbysund

Current Time: Apr 2, 2015 at 7:25:50 AM

Latest Report: Apr 2, 2015 at 6:00 AM


Visibility: N/A

Pressure: 30.20 "Hg

Humidity: 65%

Dew point: -3 °F

Location of IttoqqortoormiitLocation

Historic Weather in Ittoqqortoormiit — Graph

°F

Ittoqqortoormiit temperature yesterday

Maximum temperature yesterday: 19 °F (at 3:00 PM)
Minimum temperature yesterday: 7 °F (at 11:00 PM)
Average temperature yesterday: 14 °F

Past Weeks' High & Low Weather Summary

 TemperatureHumidityPressure
High21 °F (Mar 31, 11:00 AM)96% (Mar 26, 12:00 PM)30.76 "Hg (Mar 26, 12:00 PM)
Low-12 °F (Mar 20, 9:00 PM)41% (Mar 30, 4:00 PM)29.12 "Hg (Mar 28, 5:00 AM)
Average8 °F79%29.76 "Hg
* Reported Mar 18 5:00 AM — Apr 2 6:00 AM, Ittoqqortoormiit, Weather by CustomWeather, © 2015

Note: Actual official high and low records may vary slightly from our data, if they occured in-between our weather recording intervals... More about our weather records

Advertising

Ittoqqortoormiit weather history for previous 24 hours

 ConditionsComfort  
Time TempWeatherWind HumidityBarometerVisibility
6:00 AM
Thu, Apr 2
6 °FClear.5 mph65%30.20 "HgN/A
5:00 AM6 °FClear.6 mph64%30.22 "Hg31 mi
4:00 AM5 °FClear.8 mph65%30.24 "Hg31 mi
2:00 AM6 °FClear.8 mph68%30.26 "Hg31 mi
1:00 AM6 °FClear.9 mph68%30.27 "Hg31 mi
12:00 AM7 °FClear.8 mph64%30.29 "Hg31 mi
11:00 PM
Wed, Apr 1
7 °FClear.9 mph62%30.29 "Hg31 mi
10:00 PM10 °FClear.9 mph57%30.30 "Hg31 mi
8:00 PM13 °FSunny.2 mph63%30.29 "Hg31 mi
7:00 PM13 °FSunny.5 mph63%30.29 "Hg31 mi
6:00 PM13 °FSunny.7 mph67%30.29 "Hg25 mi
5:00 PM17 °FSunny.2 mph65%30.28 "Hg22 mi
4:00 PM18 °FSunny.2 mph66%30.28 "Hg22 mi
3:00 PM19 °FSunny.1 mph64%30.28 "Hg25 mi
2:00 PM17 °FSunny.2 mph63%30.27 "Hg25 mi
1:00 PM15 °FSunny.3 mph72%30.27 "Hg18 mi
12:00 PM17 °FSunny.1 mph62%30.25 "Hg22 mi
11:00 AM14 °FSnow flurries. Sunny.7 mph74%30.24 "Hg25 mi
10:00 AM15 °FSunny.14 mph74%30.20 "Hg28 mi
9:00 AM13 °FSunny.15 mph77%30.17 "Hg31 mi
8:00 AM13 °FCold.15 mph77%30.15 "Hg31 mi
7:00 AM11 °FSunny.6 mph75%30.14 "Hg31 mi
Weather by CustomWeather, © 2015

See weather overviewHow to use our weather pages